WJA238 CYYC-CYWG

Flight info

Callsign WJA238
Flight time 1h 31m
Altitude 35000
Route LOMLO DCT TULOV DCT DAPOP DCT DURUR Q828 YBR BEFAN4
Aircraft B38M/M-SDE1FGHILORVWXY/HB1

Departure

Time 2026-05-04 02:45
Airport Calgary International Airport (CYYC)

Arrival

Time 2026-05-04 04:16
Airport Winnipeg / James Armstrong Richardson International Airport (CYWG)
Time Latitude Longitude Altitude Speed Heading
2026-05-04 02:08 51.12808 -114.00816 3562 ft 0 kts 358°
2026-05-04 02:29 51.12786 -114.00810 3556 ft 4 kts 347°
2026-05-04 02:29 51.12764 -114.00806 3562 ft 4 kts
2026-05-04 02:29 51.12747 -114.00820 3556 ft 4 kts 77°
2026-05-04 02:30 51.12747 -114.00839 3558 ft 4 kts 94°
2026-05-04 02:30 51.12748 -114.00873 3562 ft 3 kts 94°
2026-05-04 02:30 51.12750 -114.00913 3562 ft 1 kts 94°
2026-05-04 02:31 51.12750 -114.00916 3562 ft 0 kts 94°
2026-05-04 02:35 51.12750 -114.00907 3562 ft 2 kts 94°
2026-05-04 02:35 51.12744 -114.00851 3559 ft 8 kts 109°
2026-05-04 02:35 51.12710 -114.00803 3562 ft 3 kts 166°
2026-05-04 02:36 51.12681 -114.00796 3557 ft 6 kts 175°
2026-05-04 02:36 51.12632 -114.00807 3560 ft 7 kts 211°
2026-05-04 02:36 51.12615 -114.00860 3562 ft 7 kts 261°
2026-05-04 02:36 51.12608 -114.00966 3562 ft 12 kts 271°
2026-05-04 02:37 51.12605 -114.01137 3562 ft 18 kts 264°
2026-05-04 02:37 51.12602 -114.01353 3562 ft 21 kts 270°
2026-05-04 02:37 51.12602 -114.01575 3562 ft 21 kts 270°
2026-05-04 02:37 51.12575 -114.01776 3555 ft 15 kts 224°
2026-05-04 02:38 51.12490 -114.01795 3562 ft 13 kts 179°
2026-05-04 02:38 51.12392 -114.01795 3562 ft 16 kts 181°
2026-05-04 02:38 51.12248 -114.01796 3562 ft 25 kts 180°
2026-05-04 02:38 51.12042 -114.01794 3562 ft 33 kts 182°
2026-05-04 02:39 51.11808 -114.01796 3558 ft 34 kts 179°
2026-05-04 02:39 51.11566 -114.01788 3559 ft 35 kts 178°
2026-05-04 02:39 51.11326 -114.01795 3562 ft 34 kts 181°
2026-05-04 02:39 51.11088 -114.01798 3556 ft 34 kts 181°
2026-05-04 02:40 51.10846 -114.01797 3559 ft 35 kts 179°
2026-05-04 02:40 51.10603 -114.01798 3561 ft 36 kts 179°
2026-05-04 02:40 51.10368 -114.01800 3555 ft 32 kts 179°
2026-05-04 02:40 51.10148 -114.01800 3558 ft 32 kts 180°
2026-05-04 02:41 51.09927 -114.01798 3562 ft 31 kts 180°
2026-05-04 02:41 51.09752 -114.01800 3562 ft 23 kts 183°
2026-05-04 02:41 51.09692 -114.01862 3562 ft 5 kts 252°
2026-05-04 02:41 51.09690 -114.01916 3562 ft 5 kts 266°
2026-05-04 02:42 51.09690 -114.01948 3556 ft 0 kts 270°
2026-05-04 02:42 51.09690 -114.01955 3556 ft 1 kts 270°
2026-05-04 02:43 51.09690 -114.01985 3558 ft 5 kts 270°
2026-05-04 02:43 51.09690 -114.02078 3563 ft 11 kts 271°
2026-05-04 02:43 51.09716 -114.02138 3563 ft 3 kts 350°
2026-05-04 02:43 51.09730 -114.02139 3563 ft 0 kts 358°
2026-05-04 02:44 51.09734 -114.02139 3559 ft 1 kts 358°
2026-05-04 02:44 51.09867 -114.02139 3557 ft 51 kts 359°
2026-05-04 02:44 51.10451 -114.02137 3558 ft 115 kts 360°
2026-05-04 02:45 51.11427 -114.02134 3567 ft 162 kts
2026-05-04 02:45 51.12619 -114.02154 4006 ft 176 kts
2026-05-04 02:45 51.13758 -114.02184 5185 ft 148 kts
2026-05-04 02:45 51.14804 -114.02197 5889 ft 156 kts
2026-05-04 02:46 51.15805 -114.01311 6133 ft 194 kts 49°
2026-05-04 02:46 51.16184 -113.99038 6502 ft 240 kts 89°
2026-05-04 02:46 51.15662 -113.96362 7034 ft 267 kts 108°
2026-05-04 02:46 51.15114 -113.93565 8027 ft 263 kts 96°
2026-05-04 02:47 51.14720 -113.90662 8847 ft 273 kts 97°
2026-05-04 02:47 51.14299 -113.87656 9682 ft 281 kts 98°
2026-05-04 02:47 51.13857 -113.84580 10422 ft 291 kts 99°
2026-05-04 02:47 51.13399 -113.81416 11235 ft 296 kts 100°
2026-05-04 02:48 51.12918 -113.78124 11762 ft 315 kts 101°
2026-05-04 02:48 51.12407 -113.74617 12230 ft 335 kts 101°
2026-05-04 02:48 51.11871 -113.70963 12738 ft 351 kts 101°
2026-05-04 02:48 51.11301 -113.67111 13399 ft 363 kts 102°
2026-05-04 02:49 51.10710 -113.63174 14154 ft 369 kts 102°
2026-05-04 02:49 51.10110 -113.59188 14899 ft 374 kts 101°
2026-05-04 02:49 51.09499 -113.55167 15688 ft 378 kts 101°
2026-05-04 02:49 51.08878 -113.51083 16437 ft 383 kts 100°
2026-05-04 02:50 51.08458 -113.48332 16930 ft 386 kts 99°
2026-05-04 02:50 51.07818 -113.44153 17676 ft 391 kts 99°
2026-05-04 02:50 51.07170 -113.39926 18379 ft 396 kts 98°
2026-05-04 02:50 51.06772 -113.35631 18976 ft 395 kts 90°
2026-05-04 02:51 51.06480 -113.31267 19608 ft 400 kts 90°
2026-05-04 02:51 51.06178 -113.26821 20099 ft 408 kts 90°
2026-05-04 02:51 51.05872 -113.22320 20750 ft 410 kts 90°
2026-05-04 02:51 51.05566 -113.17836 21342 ft 414 kts 90°
2026-05-04 02:52 51.05252 -113.13265 21933 ft 418 kts 90°
2026-05-04 02:52 51.04934 -113.08668 22529 ft 421 kts 90°
2026-05-04 02:52 51.04613 -113.04041 23108 ft 425 kts 90°
2026-05-04 02:52 51.04288 -112.99390 23646 ft 428 kts 90°
2026-05-04 02:53 51.03957 -112.94675 24119 ft 431 kts 90°
2026-05-04 02:53 51.03621 -112.89925 24603 ft 434 kts 90°
2026-05-04 02:53 51.03281 -112.85147 25070 ft 437 kts 90°
2026-05-04 02:53 51.02938 -112.80348 25540 ft 440 kts 90°
2026-05-04 02:54 51.02590 -112.75497 26018 ft 443 kts 90°
2026-05-04 02:54 51.02235 -112.70608 26417 ft 448 kts 90°
2026-05-04 02:54 51.01880 -112.65728 26861 ft 450 kts 90°
2026-05-04 02:54 51.01517 -112.60776 27313 ft 452 kts 90°
2026-05-04 02:55 51.00780 -112.50796 28176 ft 458 kts 90°
2026-05-04 02:55 51.00405 -112.45763 28589 ft 461 kts 90°
2026-05-04 02:55 51.00026 -112.40713 29000 ft 463 kts 90°
2026-05-04 02:56 50.99641 -112.35600 29394 ft 466 kts 90°
2026-05-04 02:56 50.99258 -112.30554 29771 ft 469 kts 90°
2026-05-04 02:56 50.98872 -112.25503 30139 ft 472 kts 90°
2026-05-04 02:56 50.98475 -112.20312 30470 ft 475 kts 90°
2026-05-04 02:57 50.98071 -112.15086 30720 ft 479 kts 90°
2026-05-04 02:57 50.97663 -112.09834 31108 ft 480 kts 90°
2026-05-04 02:57 50.97250 -112.04551 31440 ft 482 kts 90°
2026-05-04 02:57 50.96837 -111.99298 31827 ft 482 kts 90°
2026-05-04 02:58 50.96421 -111.94027 32297 ft 480 kts 89°
2026-05-04 02:58 50.96002 -111.88773 32766 ft 479 kts 89°
2026-05-04 02:58 50.95585 -111.83552 32974 ft 480 kts 89°
2026-05-04 02:59 50.94742 -111.73116 32957 ft 476 kts 89°
2026-05-04 02:59 50.93892 -111.62692 32955 ft 478 kts 89°
2026-05-04 03:00 50.93039 -111.52313 32936 ft 478 kts 89°
2026-05-04 03:00 50.92573 -111.41871 32950 ft 471 kts 83°
2026-05-04 03:01 50.92290 -111.31459 32935 ft 472 kts 84°
2026-05-04 03:01 50.91964 -111.21146 32929 ft 472 kts 84°
2026-05-04 03:02 50.91621 -111.10678 32941 ft 472 kts 84°
2026-05-04 03:02 50.91273 -111.00344 32943 ft 473 kts 84°
2026-05-04 03:03 50.90912 -110.89925 32905 ft 473 kts 84°
2026-05-04 03:03 50.90545 -110.79559 32923 ft 472 kts 84°
2026-05-04 03:04 50.90166 -110.69151 32893 ft 473 kts 84°
2026-05-04 03:04 50.89778 -110.58740 32924 ft 474 kts 84°
2026-05-04 03:05 50.89382 -110.48376 32912 ft 475 kts 84°
2026-05-04 03:05 50.88974 -110.37933 32912 ft 475 kts 84°
2026-05-04 03:06 50.88557 -110.27492 32913 ft 475 kts 84°
2026-05-04 03:06 50.88131 -110.17068 32916 ft 475 kts 84°
2026-05-04 03:07 50.87700 -110.06680 32922 ft 476 kts 84°
2026-05-04 03:07 50.87395 -109.96247 32912 ft 473 kts 81°
2026-05-04 03:08 50.87207 -109.85810 32897 ft 474 kts 82°
2026-05-04 03:08 50.86995 -109.75373 32900 ft 474 kts 82°
2026-05-04 03:09 50.86774 -109.64952 32897 ft 474 kts 82°
2026-05-04 03:09 50.86544 -109.54532 32859 ft 479 kts 82°
2026-05-04 03:10 50.86301 -109.43995 32901 ft 479 kts 82°
2026-05-04 03:10 50.86048 -109.33437 32895 ft 479 kts 82°
2026-05-04 03:11 50.85787 -109.22961 32888 ft 479 kts 82°
2026-05-04 03:11 50.85516 -109.12397 32889 ft 479 kts 82°
2026-05-04 03:12 50.85233 -109.01788 32866 ft 485 kts 82°
2026-05-04 03:12 50.84940 -108.91164 32882 ft 486 kts 82°
2026-05-04 03:13 50.84637 -108.80523 32882 ft 486 kts 83°
2026-05-04 03:13 50.84322 -108.69828 32871 ft 486 kts 83°
2026-05-04 03:14 50.83998 -108.59119 32885 ft 486 kts 83°
2026-05-04 03:14 50.83664 -108.48427 32866 ft 486 kts 83°
2026-05-04 03:15 50.83324 -108.37841 32882 ft 486 kts 83°
2026-05-04 03:15 50.82971 -108.27157 32842 ft 485 kts 83°
2026-05-04 03:16 50.82608 -108.16489 32861 ft 485 kts 83°
2026-05-04 03:16 50.82238 -108.05840 32875 ft 489 kts 83°
2026-05-04 03:17 50.81852 -107.95091 32861 ft 492 kts 83°
2026-05-04 03:17 50.81454 -107.84271 32846 ft 493 kts 84°
2026-05-04 03:18 50.81046 -107.73446 32846 ft 493 kts 84°
2026-05-04 03:18 50.80629 -107.62631 32837 ft 493 kts 84°
2026-05-04 03:19 50.80199 -107.51758 32819 ft 499 kts 84°
2026-05-04 03:19 50.79755 -107.40782 32841 ft 500 kts 84°
2026-05-04 03:20 50.79303 -107.29883 32830 ft 500 kts 85°
2026-05-04 03:20 50.78839 -107.18927 32832 ft 500 kts 85°
2026-05-04 03:21 50.78364 -107.07945 32867 ft 501 kts 85°
2026-05-04 03:21 50.77876 -106.96911 32836 ft 505 kts 85°
2026-05-04 03:22 50.77376 -106.85874 32832 ft 504 kts 85°
2026-05-04 03:22 50.76869 -106.74891 32814 ft 504 kts 86°
2026-05-04 03:23 50.76348 -106.63825 32823 ft 505 kts 86°
2026-05-04 03:23 50.75816 -106.52759 32840 ft 503 kts 87°
2026-05-04 03:24 50.75277 -106.41770 32818 ft 503 kts 87°
2026-05-04 03:24 50.74725 -106.30731 32814 ft 504 kts 87°
2026-05-04 03:25 50.74164 -106.19701 32811 ft 503 kts 87°
2026-05-04 03:25 50.73597 -106.08773 32862 ft 503 kts 88°
2026-05-04 03:26 50.73016 -105.97782 32800 ft 500 kts 88°
2026-05-04 03:26 50.72431 -105.86915 32797 ft 500 kts 88°
2026-05-04 03:27 50.71830 -105.75929 32803 ft 504 kts 88°
2026-05-04 03:27 50.71218 -105.64939 32779 ft 504 kts 88°
2026-05-04 03:28 50.70595 -105.53938 32830 ft 499 kts 89°
2026-05-04 03:28 50.69971 -105.43113 32773 ft 497 kts 89°
2026-05-04 03:29 50.69337 -105.32229 32780 ft 497 kts 89°
2026-05-04 03:29 50.68695 -105.21383 32771 ft 497 kts 89°
2026-05-04 03:30 50.68043 -105.10515 32774 ft 497 kts 89°
2026-05-04 03:30 50.67384 -104.99693 32772 ft 494 kts 90°
2026-05-04 03:31 50.66681 -104.88980 32759 ft 496 kts 96°
2026-05-04 03:31 50.65302 -104.78312 32754 ft 497 kts 97°
2026-05-04 03:32 50.64009 -104.67617 32689 ft 497 kts 96°
2026-05-04 03:32 50.62717 -104.56875 32776 ft 503 kts 97°
2026-05-04 03:33 50.61411 -104.46105 32729 ft 501 kts 97°
2026-05-04 03:33 50.60095 -104.35328 32731 ft 501 kts 97°
2026-05-04 03:34 50.58769 -104.24557 32725 ft 501 kts 97°
2026-05-04 03:34 50.57431 -104.13782 32720 ft 508 kts 97°
2026-05-04 03:35 50.56059 -104.02812 32739 ft 521 kts 98°
2026-05-04 03:35 50.54650 -103.91647 32715 ft 519 kts 98°
2026-05-04 03:36 50.53236 -103.80527 32712 ft 520 kts 98°
2026-05-04 03:36 50.51811 -103.69412 32659 ft 521 kts 98°
2026-05-04 03:37 50.50354 -103.58144 32684 ft 527 kts 98°
2026-05-04 03:37 50.48885 -103.46870 32690 ft 526 kts 98°
2026-05-04 03:38 50.47418 -103.35702 32681 ft 526 kts 98°
2026-05-04 03:38 50.45928 -103.24445 32675 ft 526 kts 99°
2026-05-04 03:39 50.44427 -103.13195 32678 ft 526 kts 99°
2026-05-04 03:39 50.42924 -103.02020 32705 ft 525 kts 99°
2026-05-04 03:40 50.41410 -102.90847 32658 ft 524 kts 99°
2026-05-04 03:40 50.40145 -102.81573 32648 ft 524 kts 99°
2026-05-04 03:41 50.38607 -102.70378 32666 ft 524 kts 99°
2026-05-04 03:41 50.37069 -102.59241 32649 ft 524 kts 99°
2026-05-04 03:42 50.35444 -102.48190 32658 ft 521 kts 103°
2026-05-04 03:42 50.33626 -102.37226 32640 ft 520 kts 102°
2026-05-04 03:43 50.31821 -102.26255 32637 ft 520 kts 102°
2026-05-04 03:43 50.30015 -102.15335 32630 ft 520 kts 102°
2026-05-04 03:44 50.28194 -102.04392 32633 ft 520 kts 103°
2026-05-04 03:44 50.26370 -101.93507 32629 ft 516 kts 103°
2026-05-04 03:45 50.24536 -101.82625 32602 ft 522 kts 103°
2026-05-04 03:45 50.22667 -101.71608 32607 ft 522 kts 103°
2026-05-04 03:46 50.20809 -101.60726 32597 ft 522 kts 103°
2026-05-04 03:46 50.18927 -101.49772 32630 ft 520 kts 103°
2026-05-04 03:47 50.17051 -101.38912 32591 ft 518 kts 104°
2026-05-04 03:47 50.15163 -101.28057 32593 ft 521 kts 104°
2026-05-04 03:48 50.13256 -101.17163 32592 ft 525 kts 104°
2026-05-04 03:48 50.11332 -101.06235 32541 ft 525 kts 104°
2026-05-04 03:49 50.09379 -100.95214 32573 ft 527 kts 105°
2026-05-04 03:49 50.07424 -100.84242 32577 ft 526 kts 105°
2026-05-04 03:50 50.05453 -100.73255 32571 ft 526 kts 105°
2026-05-04 03:50 50.03479 -100.62310 32556 ft 526 kts 105°
2026-05-04 03:51 50.01503 -100.51427 32585 ft 526 kts 105°
2026-05-04 03:51 49.99504 -100.40477 32551 ft 525 kts 105°
2026-05-04 03:52 49.97502 -100.29583 32545 ft 526 kts 106°
2026-05-04 03:52 49.95479 -100.18629 32498 ft 531 kts 106°
2026-05-04 03:53 49.93436 -100.07618 32540 ft 534 kts 106°
2026-05-04 03:53 49.91387 -99.96583 32532 ft 531 kts 104°
2026-05-04 03:53 49.90842 -99.90938 32521 ft 528 kts 91°
2026-05-04 03:54 49.90594 -99.85248 32511 ft 530 kts 93°
2026-05-04 03:54 49.90036 -99.73846 32523 ft 530 kts 92°
2026-05-04 03:55 49.89492 -99.62422 32513 ft 530 kts 92°
2026-05-04 03:55 49.88941 -99.51049 32520 ft 529 kts 93°
2026-05-04 03:55 49.88664 -99.45418 32367 ft 529 kts 93°
2026-05-04 03:56 49.88381 -99.39751 31934 ft 524 kts 93°
2026-05-04 03:56 49.88097 -99.34082 30903 ft 531 kts 94°
2026-05-04 03:56 49.87804 -99.28307 29668 ft 543 kts 94°
2026-05-04 03:56 49.87504 -99.22438 28620 ft 547 kts 94°
2026-05-04 03:57 49.87201 -99.16572 27870 ft 544 kts 95°
2026-05-04 03:57 49.86895 -99.10722 26946 ft 544 kts 95°
2026-05-04 03:57 49.86588 -99.04886 25826 ft 549 kts 95°
2026-05-04 03:57 49.86274 -98.98995 24744 ft 553 kts 95°
2026-05-04 03:58 49.85628 -98.87039 22908 ft 552 kts 95°
2026-05-04 03:58 49.85307 -98.81176 22067 ft 545 kts 95°
2026-05-04 03:58 49.84985 -98.75360 21301 ft 538 kts 96°
2026-05-04 03:59 49.84667 -98.69647 20466 ft 525 kts 96°
2026-05-04 03:59 49.84349 -98.64018 19581 ft 521 kts 96°
2026-05-04 03:59 49.84034 -98.58460 18956 ft 515 kts 96°
2026-05-04 03:59 49.83720 -98.52983 18350 ft 508 kts 96°
2026-05-04 04:00 49.83407 -98.47559 17798 ft 501 kts 96°
2026-05-04 04:00 49.83098 -98.42243 17191 ft 494 kts 96°
2026-05-04 04:00 49.82790 -98.36975 16597 ft 487 kts 96°
2026-05-04 04:00 49.82487 -98.31852 16011 ft 482 kts 96°
2026-05-04 04:01 49.82183 -98.26743 15448 ft 476 kts 95°
2026-05-04 04:01 49.81877 -98.21658 14902 ft 471 kts 95°
2026-05-04 04:01 49.81574 -98.16640 14401 ft 465 kts 95°
2026-05-04 04:01 49.81273 -98.11676 13907 ft 460 kts 94°
2026-05-04 04:02 49.80973 -98.06768 13450 ft 454 kts 94°
2026-05-04 04:02 49.80677 -98.01944 13011 ft 448 kts 94°
2026-05-04 04:02 49.80410 -97.97204 12682 ft 438 kts 92°
2026-05-04 04:02 49.80187 -97.92614 12202 ft 433 kts 92°
2026-05-04 04:03 49.79953 -97.87908 11698 ft 428 kts 92°
2026-05-04 04:03 49.79725 -97.83391 11213 ft 423 kts 92°
2026-05-04 04:03 49.79499 -97.78868 10701 ft 419 kts 91°
2026-05-04 04:03 49.79276 -97.74385 10194 ft 415 kts 91°
2026-05-04 04:04 49.79060 -97.70112 9786 ft 409 kts 91°
2026-05-04 04:04 49.78840 -97.65758 9317 ft 403 kts 91°
2026-05-04 04:04 49.78619 -97.61446 8787 ft 398 kts 91°
2026-05-04 04:04 49.78401 -97.57218 8302 ft 389 kts 91°
2026-05-04 04:05 49.78145 -97.53200 7835 ft 371 kts 92°
2026-05-04 04:05 49.77886 -97.49321 7458 ft 353 kts 92°
2026-05-04 04:05 49.77643 -97.45629 7084 ft 337 kts 92°
2026-05-04 04:05 49.77409 -97.42099 6707 ft 324 kts 92°
2026-05-04 04:06 49.77184 -97.38702 6354 ft 312 kts 91°
2026-05-04 04:06 49.76964 -97.35406 5988 ft 303 kts 91°
2026-05-04 04:06 49.76752 -97.32219 5633 ft 293 kts 91°
2026-05-04 04:06 49.76373 -97.29219 5470 ft 275 kts 109°
2026-05-04 04:07 49.75599 -97.26799 5416 ft 252 kts 114°
2026-05-04 04:07 49.74820 -97.24417 5380 ft 253 kts 114°
2026-05-04 04:07 49.74008 -97.21928 5375 ft 262 kts 114°
2026-05-04 04:07 49.73187 -97.19413 5293 ft 262 kts 114°
2026-05-04 04:08 49.72362 -97.16948 5125 ft 262 kts 119°
2026-05-04 04:08 49.71157 -97.14907 5026 ft 252 kts 139°
2026-05-04 04:08 49.69856 -97.13106 5024 ft 251 kts 135°
2026-05-04 04:08 49.68988 -97.10872 4934 ft 237 kts 101°
2026-05-04 04:09 49.68994 -97.08469 4967 ft 220 kts 65°
2026-05-04 04:09 49.69629 -97.06402 5028 ft 208 kts 50°
2026-05-04 04:09 49.70429 -97.04627 4963 ft 192 kts 31°
2026-05-04 04:09 49.71558 -97.03833 4960 ft 174 kts
2026-05-04 04:10 49.72751 -97.03561 4951 ft 173 kts 359°
2026-05-04 04:10 49.73938 -97.03337 4760 ft 171 kts 359°
2026-05-04 04:10 49.75060 -97.03500 4522 ft 161 kts 332°
2026-05-04 04:10 49.75999 -97.04372 4370 ft 159 kts 322°
2026-05-04 04:11 49.76827 -97.05362 4172 ft 143 kts 320°
2026-05-04 04:11 49.77564 -97.06314 3982 ft 138 kts 318°
2026-05-04 04:11 49.78287 -97.07282 3799 ft 137 kts 317°
2026-05-04 04:11 49.79002 -97.08254 3618 ft 138 kts 316°
2026-05-04 04:12 49.79724 -97.09241 3452 ft 139 kts 316°
2026-05-04 04:12 49.80410 -97.10183 3257 ft 125 kts 315°
2026-05-04 04:12 49.81039 -97.11045 3094 ft 118 kts 314°
2026-05-04 04:12 49.81648 -97.11885 2939 ft 117 kts 313°
2026-05-04 04:13 49.82257 -97.12726 2786 ft 117 kts 312°
2026-05-04 04:13 49.82851 -97.13546 2626 ft 118 kts 312°
2026-05-04 04:13 49.83462 -97.14388 2482 ft 119 kts 312°
2026-05-04 04:13 49.84082 -97.15242 2324 ft 119 kts 311°
2026-05-04 04:14 49.84700 -97.16094 2155 ft 119 kts 309°
2026-05-04 04:14 49.85319 -97.16947 1990 ft 122 kts 308°
2026-05-04 04:14 49.85958 -97.17840 1832 ft 126 kts 310°
2026-05-04 04:14 49.86625 -97.18754 1588 ft 130 kts 312°
2026-05-04 04:15 49.87310 -97.19703 1392 ft 134 kts 314°
2026-05-04 04:15 49.88011 -97.20625 1213 ft 134 kts 315°
2026-05-04 04:15 49.88708 -97.21615 1079 ft 136 kts 311°
2026-05-04 04:15 49.89379 -97.22610 877 ft 133 kts 314°
2026-05-04 04:16 49.90054 -97.23535 803 ft 120 kts 318°
2026-05-04 04:16 49.90608 -97.24307 792 ft 96 kts 320°
2026-05-04 04:16 49.91025 -97.24854 790 ft 52 kts 318°
2026-05-04 04:16 49.91233 -97.25121 793 ft 17 kts 346°
2026-05-04 04:17 49.91295 -97.25095 792 ft 0 kts 41°
2026-05-04 04:18 49.91296 -97.25092 792 ft 1 kts 46°
2026-05-04 04:18 49.91309 -97.25068 791 ft 5 kts 51°
2026-05-04 04:18 49.91331 -97.25011 790 ft 7 kts 62°
2026-05-04 04:18 49.91343 -97.24951 789 ft 5 kts 81°
2026-05-04 04:19 49.91343 -97.24901 789 ft 4 kts 94°
2026-05-04 04:19 49.91339 -97.24842 789 ft 9 kts 97°
2026-05-04 04:19 49.91323 -97.24684 789 ft 20 kts 99°
2026-05-04 04:19 49.91300 -97.24448 789 ft 22 kts 98°
2026-05-04 04:20 49.91278 -97.24220 789 ft 20 kts 98°
2026-05-04 04:20 49.91257 -97.24011 788 ft 19 kts 98°
2026-05-04 04:20 49.91236 -97.23831 790 ft 14 kts 107°
2026-05-04 04:20 49.91217 -97.23700 790 ft 12 kts 98°
2026-05-04 04:21 49.91197 -97.23607 789 ft 5 kts 138°
2026-05-04 04:21 49.91171 -97.23580 789 ft 4 kts 150°
2026-05-04 04:21 49.91144 -97.23558 789 ft 6 kts 153°
2026-05-04 04:21 49.91094 -97.23520 789 ft 10 kts 155°
2026-05-04 04:22 49.91025 -97.23470 789 ft 11 kts 155°
2026-05-04 04:22 49.90963 -97.23425 789 ft 10 kts 155°
2026-05-04 04:22 49.90901 -97.23379 789 ft 10 kts 152°
2026-05-04 04:22 49.90836 -97.23331 789 ft 11 kts 157°
2026-05-04 04:23 49.90757 -97.23280 789 ft 14 kts 155°
2026-05-04 04:23 49.90692 -97.23203 789 ft 9 kts 117°
2026-05-04 04:23 49.90687 -97.23146 789 ft 3 kts 85°
2026-05-04 04:23 49.90692 -97.23083 789 ft 11 kts 79°
2026-05-04 04:24 49.90709 -97.22943 789 ft 11 kts 77°
2026-05-04 04:24 49.90723 -97.22848 789 ft 8 kts 77°
2026-05-04 04:24 49.90733 -97.22774 789 ft 6 kts 77°
2026-05-04 04:24 49.90740 -97.22716 789 ft 5 kts 80°
2026-05-04 04:25 49.90746 -97.22662 789 ft 6 kts 79°
2026-05-04 04:25 49.90755 -97.22592 789 ft 6 kts 81°
2026-05-04 04:25 49.90760 -97.22534 789 ft 5 kts 82°
2026-05-04 04:25 49.90766 -97.22490 789 ft 7 kts 80°
2026-05-04 04:26 49.90765 -97.22443 789 ft 1 kts 115°
2026-05-04 04:26 49.90750 -97.22428 789 ft 5 kts 156°
2026-05-04 04:26 49.90717 -97.22420 790 ft 4 kts 178°
2026-05-04 04:26 49.90691 -97.22419 789 ft 3 kts 179°
2026-05-04 04:27 49.90680 -97.22419 789 ft 1 kts 179°
2026-05-04 04:27 49.90679 -97.22419 789 ft 0 kts 179°